Starlink 2387

operational
NORAD ID: 47806 Int'l Des: 2021-018 Owner: SPXS Country: US Constellation: starlink
LEOCIRCULARSTARLINK_TYPE

About Starlink 2387

Description loading...

Live Position

Loading 3D Globe...

Upcoming Passes

Altitude History

Altitude vs Time

uPlot chart will show altitude changes over time

Two-Line Element Set

1 47806U 21018V 25347.10196868 -.00003593 00000-0 -22253-3 0 9996
2 47806 53.0533 275.3365 0001426 93.7243 266.3909 15.06383609263678
Epoch: Dec 13, 2025 • Age: 33 hours

Current Status

Altitude 550.9 km
Velocity 7.59 km/s
Sub-Earth Point -12.01°S, 0.77°W
Launch Date Mar 11, 2021
Age 4.7 years
Type internet

Technical Details

Classification Payload
Mass 260.00 kg
Dry Mass 248.00 kg
Total Mass 260.00 kg
Length 0.20 m
Diameter 2.80 m
Span 9.00 m
Shape Box + pan
Manufacturer SPXS
Bus Type Starlink
Phase Status In Orbit
Owner/State SPXS/US

Large Constellations

Loading constellations...